Location: Stilling
(56.0622°N, 9.9882°E)
Time: 23:23:51
(UTC+00:00)

SL-8 Rocket - Pass Details

Date: 13 July 2020
Orbit: 958 x 990 km, 82.9° (Epoch: 14 August)

Event Time Altitude Azimuth Distance (km) Brightness Sun altitude
Exits shadow 21:34:07 - 169° (S) 2,735 5.7 -8.8°
Reaches altitude 10° 21:34:14 10° 169° (S) 2,690 5.7 -8.8°
Maximum altitude 21:40:13 56° 93° (E) 1,129 4.2 -9.1°
Drops below altitude 10° 21:46:14 10° 17° (NNE) 2,706 7.1 -9.5°
Sets 21:48:47 0° 14° (NNE) 3,658 8.0 -9.6°
